FW8254 Weather Reports


time (UTC)temp
C
wind
direction
speed
KPH
gust
KPH
rain 1hr
cm
rain 24hr
cm
rain mn
cm
humidity
%
barometer
mb
20260509024625 17 57 0.0 0.0 0.00 0.00 0.00 79 1010.2
20260509024121 16 57 0.0 0.0 0.00 0.00 0.00 79 1010.1
20260509023620 17 57 0.0 0.0 0.00 0.00 0.00 79 1010.6
20260509023116 17 57 0.0 0.0 0.00 0.00 0.00 79 1010.5
20260509022612 17 57 0.0 0.0 0.00 0.00 0.00 79 1010.4
20260509022110 17 57 0.0 0.0 0.00 0.00 0.00 79 1010.3
20260509021607 17 57 0.0 0.0 0.00 0.00 0.00 78 1010.4
20260509021104 17 57 0.0 0.0 0.00 0.00 0.00 78 1010.3
20260509020603 17 57 0.0 0.0 0.00 0.00 0.00 77 1010.1
20260509020059 17 57 0.0 0.0 0.00 0.00 0.00 74 1010.4
20260509015558 17 57 0.0 0.0 0.00 0.00 0.00 72 1010.3
20260509015055 17 57 0.0 1.6 0.00 0.00 0.00 72 1010.3
20260509014551 17 57 0.0 1.6 0.00 0.00 0.00 72 1010.1
20260509014048 17 57 0.0 0.0 0.00 0.00 0.00 73 1010.1
20260509013545 17 57 0.0 0.0 0.00 0.00 0.00 74 1010.1
20260509013040 17 58 0.0 0.0 0.00 0.00 0.00 75 1010.1
20260509012537 17 58 0.0 0.0 0.00 0.00 0.00 76 1010.4
20260509012034 17 58 0.0 0.0 0.00 0.00 0.00 76 1010.2
20260509011532 17 58 0.0 0.0 0.00 0.00 0.00 76 1010.1
20260509011029 18 58 0.0 0.0 0.00 0.00 0.00 75 1010.0
20260509010527 18 58 0.0 0.0 0.00 0.00 0.00 75 1009.9
20260509010023 18 58 0.0 0.0 0.00 0.00 0.00 74 1009.9
20260509005521 18 58 0.0 0.0 0.00 0.00 0.00 74 1009.9
20260509005021 18 58 0.0 1.6 0.00 0.00 0.00 74 1009.7
20260509004518 18 58 0.0 0.0 0.00 0.00 0.00 74 1009.7
20260509004015 18 58 0.0 0.0 0.00 0.00 0.00 73 1009.9
20260509003514 18 58 0.0 0.0 0.00 0.00 0.00 73 1010.0
20260509003010 18 58 0.0 0.0 0.00 0.00 0.00 71 1009.9
20260509002508 18 58 0.0 0.0 0.00 0.00 0.00 68 1009.7
20260509002005 18 58 0.0 0.0 0.00 0.00 0.00 67 1009.6
20260509001502 18 58 0.0 0.0 0.00 0.00 0.00 67 1009.9
20260509000958 18 58 0.0 0.0 0.00 0.00 0.00 67 1009.7
20260509000457 19 58 0.0 0.0 0.00 0.00 0.00 67 1009.4
20260508235952 19 58 0.0 0.0 0.00 0.00 0.00 66 1009.4
20260508235450 19 58 0.0 0.0 0.00 0.00 0.00 67 1009.3
20260508234946 19 58 0.0 0.0 0.00 0.00 0.00 66 1009.2
20260508234443 19 58 0.0 0.0 0.00 0.00 0.00 66 1009.3
20260508233941 20 58 0.0 0.0 0.00 0.00 0.00 66 1009.4
20260508233440 20 58 0.0 0.0 0.00 0.00 0.00 65 1009.3
20260508232936 20 58 0.0 0.0 0.00 0.00 0.00 64 1009.5
20260508232434 20 58 0.0 0.0 0.00 0.00 0.00 63 1009.5
20260508231931 20 58 0.0 0.0 0.00 0.00 0.00 62 1009.5
20260508231428 20 58 0.0 0.0 0.00 0.00 0.00 62 1009.3
20260508230925 20 58 0.0 0.0 0.00 0.00 0.00 62 1009.4
20260508230421 20 58 0.0 0.0 0.00 0.00 0.00 61 1009.4
20260508225919 20 58 0.0 0.0 0.00 0.00 0.00 61 1009.6
20260508225415 20 58 0.0 0.0 0.00 0.00 0.00 59 1009.6
20260508224913 20 58 0.0 0.0 0.00 0.00 0.00 59 1009.3
20260508224410 20 58 0.0 0.0 0.00 0.00 0.00 58 1009.5
20260508223907 20 58 0.0 0.0 0.00 0.00 0.00 57 1009.5
20260508223405 20 58 0.0 1.6 0.00 0.00 0.00 56 1009.5
20260508222902 21 58 0.0 0.0 0.00 0.00 0.00 57 1009.6
20260508222359 21 58 0.0 0.0 0.00 0.00 0.00 57 1009.5
20260508221856 21 58 0.0 0.0 0.00 0.00 0.00 56 1009.2
20260508221351 21 58 0.0 1.6 0.00 0.00 0.00 54 1009.5
20260508220848 21 58 0.0 1.6 0.00 0.00 0.00 53 1009.1
20260508220344 21 57 0.0 1.6 0.00 0.00 0.00 54 1009.3
20260508215841 21 57 0.0 1.6 0.00 0.00 0.00 53 1009.3
20260508215338 21 57 0.0 1.6 0.00 0.00 0.00 52 1009.1
20260508214835 21 55 0.0 0.0 0.00 0.00 0.00 53 1009.3
20260508214332 21 55 0.0 1.6 0.00 0.00 0.00 52 1009.6
20260508213828 22 52 1.6 1.6 0.00 0.00 0.00 50 1009.7
20260508213325 22 51 0.0 0.0 0.00 0.00 0.00 52 1009.4
20260508212821 21 51 0.0 0.0 0.00 0.00 0.00 50 1009.7
20260508212318 21 51 0.0 0.0 0.00 0.00 0.00 51 1009.5
20260508211814 22 51 0.0 0.0 0.00 0.00 0.00 50 1009.5
20260508211309 22 47 0.0 0.0 0.00 0.00 0.00 50 1009.5
20260508210807 22 47 0.0 1.6 0.00 0.00 0.00 50 1009.3
20260508210304 22 43 0.0 1.6 0.00 0.00 0.00 48 1009.4
20260508205801 22 55 1.6 1.6 0.00 0.00 0.00 48 1009.4
20260508205257 22 55 1.6 1.6 0.00 0.00 0.00 48 1009.3
20260508204753 22 65 3.2 3.2 0.00 0.00 0.00 46 1009.6
20260508204250 22 47 0.0 0.0 0.00 0.00 0.00 47 1009.5
20260508203746 22 47 0.0 0.0 0.00 0.00 0.00 49 1009.6
20260508203243 22 59 0.0 3.2 0.00 0.00 0.00 48 1009.7
20260508202738 22 24 0.0 1.6 0.00 0.00 0.00 48 1010.0
20260508202236 22 26 1.6 1.6 0.00 0.00 0.00 48 1010.0
20260508201733 23 28 1.6 1.6 0.00 0.00 0.00 46 1010.0
20260508201229 22 54 0.0 0.0 0.00 0.00 0.00 48 1010.1
20260508200726 22 57 0.0 3.2 0.00 0.00 0.00 46 1009.9
20260508200222 22 45 0.0 1.6 0.00 0.00 0.00 46 1010.1
20260508195719 22 50 1.6 3.2 0.00 0.00 0.00 46 1009.9
20260508195215 23 51 1.6 1.6 0.00 0.00 0.00 46 1010.1
20260508194712 22 49 0.0 3.2 0.00 0.00 0.00 45 1010.1
20260508194209 23 53 1.6 4.8 0.00 0.00 0.00 44 1010.1
20260508193706 23 35 0.0 0.0 0.00 0.00 0.00 44 1010.1
20260508193203 22 35 0.0 1.6 0.00 0.00 0.00 45 1010.4
20260508192659 22 66 3.2 3.2 0.00 0.00 0.00 44 1010.2
20260508192156 22 66 3.2 3.2 0.00 0.00 0.00 44 1010.5
20260508191654 22 64 0.0 3.2 0.00 0.00 0.00 47 1010.5
20260508191150 22 74 3.2 3.2 0.00 0.00 0.00 46 1010.6
20260508190648 23 64 3.2 3.2 0.00 0.00 0.00 44 1010.7
20260508190144 22 29 0.0 4.8 0.00 0.00 0.00 44 1010.7
20260508185641 22 61 1.6 9.7 0.00 0.00 0.00 45 1010.9
20260508185138 22 24 1.6 3.2 0.00 0.00 0.00 46 1011.3
20260508184635 22 52 0.0 1.6 0.00 0.00 0.00 47 1011.2
20260508184132 22 74 3.2 3.2 0.00 0.00 0.00 44 1011.2
20260508183629 22 54 1.6 3.2 0.00 0.00 0.00 47 1011.3
20260508183125 22 65 3.2 4.8 0.00 0.00 0.00 44 1011.4
20260508182621 22 65 0.0 3.2 0.00 0.00 0.00 45 1011.5
20260508182118 22 71 3.2 3.2 0.00 0.00 0.00 45 1011.6
20260508181613 22 61 1.6 1.6 0.00 0.00 0.00 45 1011.6
20260508181111 22 68 3.2 3.2 0.00 0.00 0.00 44 1011.7
20260508180607 22 76 4.8 4.8 0.00 0.00 0.00 44 1011.8
20260508180103 22 74 1.6 3.2 0.00 0.00 0.00 47 1011.9
20260508175600 21 65 1.6 3.2 0.00 0.00 0.00 45 1011.7
20260508175058 21 60 3.2 3.2 0.00 0.00 0.00 43 1011.9
20260508174555 21 66 1.6 3.2 0.00 0.00 0.00 47 1012.0
20260508174052 21 57 1.6 3.2 0.00 0.00 0.00 44 1012.0
20260508173549 21 51 0.0 1.6 0.00 0.00 0.00 47 1011.9
20260508173045 21 85 3.2 3.2 0.00 0.00 0.00 45 1011.9
20260508172542 21 56 0.0 8.0 0.00 0.00 0.00 44 1011.9
20260508172039 21 32 0.0 1.6 0.00 0.00 0.00 44 1012.4
20260508171535 21 49 1.6 3.2 0.00 0.00 0.00 46 1012.2
20260508171032 21 46 0.0 1.6 0.00 0.00 0.00 48 1012.3
20260508170529 21 65 1.6 3.2 0.00 0.00 0.00 48 1012.5
20260508170026 21 81 3.2 3.2 0.00 0.00 0.00 46 1012.4
20260508165523 20 59 1.6 8.0 0.00 0.00 0.00 48 1012.7
20260508165020 20 59 0.0 1.6 0.00 0.00 0.00 51 1012.9
20260508164517 20 58 1.6 1.6 0.00 0.00 0.00 51 1012.8
20260508164013 20 58 1.6 1.6 0.00 0.00 0.00 51 1012.6
20260508163511 20 61 1.6 3.2 0.00 0.00 0.00 51 1012.9
20260508163007 20 64 0.0 1.6 0.00 0.00 0.00 50 1013.1
20260508162504 20 64 1.6 1.6 0.00 0.00 0.00 49 1013.2
20260508162001 20 57 1.6 3.2 0.00 0.00 0.00 50 1013.0
20260508161458 20 40 0.0 3.2 0.00 0.00 0.00 49 1012.9
20260508160955 20 57 1.6 3.2 0.00 0.00 0.00 49 1013.2
20260508160454 20 58 3.2 3.2 0.00 0.00 0.00 50 1013.3
20260508155950 20 54 0.0 3.2 0.00 0.00 0.00 50 1013.1
20260508155447 20 15 1.6 4.8 0.00 0.00 0.00 50 1013.0
20260508154944 20 57 0.0 1.6 0.00 0.00 0.00 51 1013.3
20260508154442 20 108 3.2 3.2 0.00 0.00 0.00 52 1013.2
20260508153938 20 79 3.2 3.2 0.00 0.00 0.00 50 1013.5
20260508153435 20 66 1.6 3.2 0.00 0.00 0.00 51 1013.6
20260508152931 20 57 0.0 3.2 0.00 0.00 0.00 51 1013.6
20260508152428 20 60 0.0 3.2 0.00 0.00 0.00 50 1013.4
20260508151924 20 80 3.2 3.2 0.00 0.00 0.00 51 1013.5
20260508151422 19 74 0.0 4.8 0.00 0.00 0.00 53 1013.4
20260508150918 19 51 1.6 3.2 0.00 0.00 0.00 52 1013.4
20260508150414 18 78 3.2 3.2 0.00 0.00 0.00 54 1013.5
20260508145910 19 80 1.6 3.2 0.00 0.00 0.00 56 1013.3
20260508145407 18 60 0.0 1.6 0.00 0.00 0.00 55 1013.4
20260508144904 18 60 1.6 3.2 0.00 0.00 0.00 53 1013.5
20260508144402 18 56 0.0 1.6 0.00 0.00 0.00 55 1013.5
20260508143859 18 57 0.0 1.6 0.00 0.00 0.00 56 1013.6
20260508143356 18 53 0.0 3.2 0.00 0.00 0.00 58 1013.5
20260508142853 18 67 1.6 3.2 0.00 0.00 0.00 56 1013.6
20260508142350 18 59 1.6 3.2 0.00 0.00 0.00 56 1013.3
20260508141846 18 65 1.6 3.2 0.00 0.00 0.00 56 1013.6
20260508141343 18 61 1.6 1.6 0.00 0.00 0.00 58 1013.6
20260508140841 18 60 1.6 1.6 0.00 0.00 0.00 60 1013.6
20260508140337 18 59 1.6 1.6 0.00 0.00 0.00 61 1013.6
20260508135833 17 59 0.0 1.6 0.00 0.00 0.00 59 1013.8
20260508135330 17 80 1.6 3.2 0.00 0.00 0.00 58 1013.6
20260508134826 17 76 1.6 3.2 0.00 0.00 0.00 57 1013.8
20260508134322 18 76 3.2 3.2 0.00 0.00 0.00 58 1013.3
20260508133819 18 72 1.6 3.2 0.00 0.00 0.00 60 1013.6
20260508133317 18 58 1.6 3.2 0.00 0.00 0.00 63 1013.5
20260508132814 18 66 1.6 1.6 0.00 0.00 0.00 64 1013.5
20260508132312 18 55 1.6 1.6 0.00 0.00 0.00 67 1013.4
20260508131808 18 69 1.6 3.2 0.00 0.00 0.00 66 1013.5
20260508131304 18 61 0.0 1.6 0.00 0.00 0.00 64 1013.5
20260508130800 18 54 1.6 1.6 0.00 0.00 0.00 68 1013.3
20260508130258 17 48 0.0 3.2 0.00 0.00 0.00 70 1013.2
20260508125754 17 103 4.8 4.8 0.00 0.00 0.00 71 1013.2
20260508125250 16 49 0.0 4.8 0.00 0.00 0.00 74 1013.1
20260508124749 16 67 0.0 3.2 0.00 0.00 0.00 81 1012.9
20260508124245 15 74 1.6 3.2 0.00 0.00 0.00 86 1012.8
20260508123743 15 71 1.6 1.6 0.00 0.00 0.00 90 1012.9
20260508123241 15 58 0.0 0.0 0.00 0.00 0.00 91 1013.0
20260508122737 15 58 0.0 0.0 0.00 0.00 0.00 91 1012.9
20260508122234 15 58 0.0 0.0 0.00 0.00 0.00 91 1012.8
20260508121731 15 58 0.0 0.0 0.00 0.00 0.00 91 1012.8
20260508121230 14 58 0.0 0.0 0.00 0.00 0.00 91 1012.7
20260508120726 14 58 0.0 0.0 0.00 0.00 0.00 91 1013.0
20260508120225 13 58 0.0 0.0 0.00 0.00 0.00 91 1012.6
20260508115722 13 58 0.0 0.0 0.00 0.00 0.00 91 1012.7
20260508115220 13 58 0.0 0.0 0.00 0.00 0.00 90 1012.5
20260508114716 13 58 0.0 0.0 0.00 0.00 0.00 90 1012.4
20260508114213 13 58 0.0 0.0 0.00 0.00 0.00 90 1012.6
20260508113709 13 58 0.0 0.0 0.00 0.00 0.00 90 1012.4
20260508113208 13 58 0.0 0.0 0.00 0.00 0.00 90 1012.1
20260508112703 13 58 0.0 0.0 0.00 0.00 0.00 90 1012.1
20260508112200 13 58 0.0 0.0 0.00 0.00 0.00 90 1012.0
20260508111657 13 58 0.0 0.0 0.00 0.00 0.00 90 1011.7
20260508111155 13 58 0.0 0.0 0.00 0.00 0.00 90 1011.8
20260508110652 13 58 0.0 0.0 0.00 0.00 0.00 90 1011.5
20260508110149 13 58 0.0 0.0 0.00 0.00 0.00 90 1011.5
20260508105643 13 58 0.0 0.0 0.00 0.00 0.00 90 1011.8
20260508105140 13 58 0.0 0.0 0.00 0.00 0.00 90 1011.5
20260508104638 13 58 0.0 0.0 0.00 0.00 0.00 90 1011.6
20260508104134 13 58 0.0 0.0 0.00 0.00 0.00 90 1011.3
20260508103626 12 58 0.0 0.0 0.00 0.00 0.00 89 1011.2
20260508103123 13 58 0.0 0.0 0.00 0.00 0.00 89 1011.2
20260508102620 13 58 0.0 0.0 0.00 0.00 0.00 89 1010.9
20260508102119 13 58 0.0 0.0 0.00 0.00 0.00 89 1010.8
20260508101616 13 58 0.0 0.0 0.00 0.00 0.00 89 1010.9
20260508101113 13 58 0.0 0.0 0.00 0.00 0.00 89 1010.7
20260508100610 13 58 0.0 0.0 0.00 0.00 0.00 89 1010.5
20260508100108 13 58 0.0 0.0 0.00 0.00 0.00 89 1010.6
20260508095604 13 58 0.0 0.0 0.00 0.00 0.00 89 1010.4
20260508095101 13 58 0.0 0.0 0.00 0.00 0.00 89 1010.5
20260508094558 13 58 0.0 0.0 0.00 0.00 0.00 89 1010.5
20260508094055 13 58 0.0 0.0 0.00 0.00 0.00 88 1010.3
20260508093552 13 58 0.0 0.0 0.00 0.00 0.00 88 1010.4
20260508093050 13 58 0.0 0.0 0.00 0.00 0.00 88 1010.4
20260508092547 13 58 0.0 0.0 0.00 0.00 0.00 88 1010.5
20260508092046 13 58 0.0 0.0 0.00 0.00 0.00 88 1010.3
20260508091542 14 58 0.0 0.0 0.00 0.00 0.00 88 1010.4
20260508091039 14 58 0.0 0.0 0.00 0.00 0.00 88 1010.3
20260508090538 14 58 0.0 0.0 0.00 0.00 0.00 87 1010.2
20260508090034 14 58 0.0 0.0 0.00 0.00 0.00 87 1010.2
20260508085530 14 58 0.0 0.0 0.00 0.00 0.00 87 1010.2
20260508085028 14 58 0.0 0.0 0.00 0.00 0.00 87 1010.2
20260508084524 14 58 0.0 0.0 0.00 0.00 0.00 86 1010.1
20260508084022 14 58 0.0 0.0 0.00 0.00 0.00 86 1010.1
20260508083519 15 58 0.0 0.0 0.00 0.00 0.00 86 1010.1
20260508083015 15 58 0.0 0.0 0.00 0.00 0.00 86 1010.2
20260508082511 15 58 0.0 0.0 0.00 0.00 0.00 85 1010.1
20260508082009 15 58 0.0 0.0 0.00 0.00 0.00 85 1010.0
20260508081506 15 58 0.0 0.0 0.00 0.00 0.00 85 1009.9
20260508081002 15 58 0.0 0.0 0.00 0.00 0.00 84 1009.8
20260508080500 15 58 0.0 0.0 0.00 0.00 0.00 84 1010.0
20260508075957 15 58 0.0 0.0 0.00 0.00 0.00 84 1009.9
20260508075454 15 58 0.0 0.0 0.00 0.00 0.00 84 1009.9
20260508074951 15 58 0.0 0.0 0.00 0.00 0.00 83 1009.8
20260508074449 15 58 0.0 0.0 0.00 0.00 0.00 83 1009.7
20260508073945 15 58 0.0 0.0 0.00 0.00 0.00 83 1010.0
20260508073443 15 58 0.0 0.0 0.00 0.00 0.00 83 1009.9
20260508072940 15 58 0.0 0.0 0.00 0.00 0.00 83 1009.8
20260508072436 15 58 0.0 0.0 0.00 0.00 0.00 83 1009.8
20260508071933 15 58 0.0 0.0 0.00 0.00 0.00 82 1009.8
20260508071431 15 58 0.0 0.0 0.00 0.00 0.00 82 1009.8
20260508070929 15 58 0.0 1.6 0.00 0.00 0.00 82 1009.4
20260508070426 15 58 0.0 0.0 0.00 0.00 0.00 82 1009.5
20260508065924 16 58 0.0 0.0 0.00 0.00 0.00 81 1009.7
20260508065422 16 58 0.0 0.0 0.00 0.00 0.00 81 1009.1
20260508064920 16 63 0.0 0.0 0.00 0.00 0.00 81 1009.2
20260508064417 16 63 0.0 1.6 0.00 0.00 0.00 81 1009.3
20260508063914 16 67 0.0 0.0 0.00 0.00 0.00 80 1009.4
20260508063412 16 67 0.0 0.0 0.00 0.00 0.00 80 1009.3
20260508062909 16 67 0.0 1.6 0.00 0.00 0.00 80 1009.5
20260508062407 16 67 0.0 0.0 0.00 0.00 0.00 79 1009.5
20260508061904 16 67 0.0 1.6 0.00 0.00 0.00 79 1009.3
20260508061401 16 67 1.6 3.2 0.00 0.00 0.00 79 1009.5
20260508060857 16 67 0.0 1.6 0.00 0.00 0.00 79 1009.3
20260508060355 16 69 1.6 1.6 0.00 0.00 0.00 79 1009.5
20260508055850 16 67 0.0 1.6 0.00 0.00 0.00 79 1009.7
20260508055348 16 67 1.6 3.2 0.00 0.00 0.00 78 1009.8
20260508054844 16 69 1.6 3.2 0.00 0.00 0.00 79 1009.5
20260508054341 17 68 3.2 3.2 0.00 0.00 0.00 79 1009.3
20260508053838 17 70 1.6 1.6 0.00 0.00 0.00 78 1009.7
20260508053336 17 70 1.6 3.2 0.00 0.00 0.00 78 1009.6
20260508052833 17 63 1.6 3.2 0.00 0.00 0.00 79 1009.5
20260508052331 17 76 3.2 4.8 0.00 0.00 0.00 79 1009.4
20260508051826 17 67 1.6 3.2 0.00 0.00 0.00 80 1009.4
20260508051322 17 68 1.6 3.2 0.00 0.00 0.00 80 1009.4
20260508050818 17 64 0.0 1.6 0.00 0.00 0.00 80 1009.3
20260508050315 17 63 0.0 1.6 0.00 0.00 0.00 79 1009.2
20260508045811 18 58 0.0 1.6 0.00 0.00 0.00 79 1009.2
20260508045309 18 58 0.0 0.0 0.00 0.00 0.00 79 1009.3
20260508044807 18 58 1.6 1.6 0.00 0.00 0.00 78 1009.3
20260508044303 18 57 0.0 1.6 0.00 0.00 0.00 78 1009.1
20260508043759 18 57 0.0 0.0 0.00 0.00 0.00 77 1009.2
20260508043256 18 57 0.0 0.0 0.00 0.00 0.00 77 1009.0
20260508042753 18 58 1.6 1.6 0.00 0.00 0.00 76 1008.9
20260508042251 18 57 0.0 1.6 0.00 0.00 0.00 76 1008.7
20260508041747 18 57 0.0 1.6 0.00 0.00 0.00 75 1008.8
20260508041244 18 67 1.6 3.2 0.00 0.00 0.00 76 1008.7
20260508040740 18 55 0.0 1.6 0.00 0.00 0.00 75 1008.7
20260508040237 18 54 1.6 1.6 0.00 0.00 0.00 75 1009.0
20260508035735 18 52 0.0 1.6 0.00 3.96 3.96 76 1008.5
20260508035232 18 52 1.6 1.6 0.00 3.96 3.96 77 1008.7
20260508034729 18 44 0.0 1.6 0.00 3.96 3.96 77 1008.7
20260508034226 18 42 0.0 0.0 0.00 3.96 3.96 77 1008.8
20260508033723 18 42 0.0 0.0 0.00 3.96 3.96 76 1008.6
20260508033221 19 43 0.0 0.0 0.00 3.96 3.96 75 1008.7
20260508032719 19 42 0.0 0.0 0.00 3.96 3.96 74 1008.7
20260508032216 20 28 1.6 4.8 0.00 3.96 3.96 75 1008.5
20260508031712 20 304 4.8 9.7 0.00 3.96 3.96 73 1008.4
20260508031208 20 303 6.4 8.0 0.00 3.96 3.96 73 1008.3
20260508030705 20 293 6.4 11.3 0.00 3.96 3.96 72 1008.5
20260508030203 20 308 6.4 9.7 0.00 3.96 3.96 72 1008.4
20260508025658 20 284 6.4 11.3 0.00 3.96 3.96 72 1008.1
20260508025156 20 293 6.4 11.3 0.00 3.96 3.96 72 1008.1